Location: Del Amo
(33.8464°N, 118.2104°W)
Time: 02:04:17
(UTC+00:00)

SR - Pass Details

Date: 28 September 2024
Orbit: 578 x 855 km, 66.7° (Epoch: 02 October)

Event Time Altitude Azimuth Distance (km) Brightness Sun altitude
Rises 02:29:39 0° 343° (NNW) 3,016 ? -10.8°
Reaches altitude 10° 02:32:04 10° 352° (N) 2,144 ? -11.3°
Maximum altitude 02:36:34 36° 59° (ENE) 1,144 ? -12.2°
Enters shadow 02:40:16 16° 119° (ESE) 1,919 ? -13.0°
Drops below altitude 10° 02:41:24 10° 126° (SE) 2,305 - -13.2°
Sets 02:44:04 0° 134° (SE) 3,273 - -13.8°
